Wetterdaten: Woche 13.01.14 - 19.01.14 (KW3)
Datum Zeit Temp. Aussen +5cm Feuchte Auss Luftdruck Regen Sonnenschein Regendauer UV Solar Windben
13.01.2014 00:00 2,0 C 0,6 C 86 % 1013,5 hPa 0,0 l/m 0,00 h 0,00 h 0,0 UV-I 0 W/m 14,7 km/h (3 Bft)
13.01.2014 01:00 2,1 C 0,6 C 87 % 1012,9 hPa 0,0 l/m 0,00 h 0,00 h 0,0 UV-I 0 W/m 19,8 km/h (4 Bft)
13.01.2014 02:00 2,0 C 0,7 C 89 % 1012,3 hPa 0,0 l/m 0,00 h 0,00 h 0,0 UV-I 0 W/m 19,0 km/h (3 Bft)
13.01.2014 03:00 2,2 C 0,7 C 90 % 1011,6 hPa 0,0 l/m 0,00 h 0,00 h 0,0 UV-I 0 W/m 17,0 km/h (3 Bft)
13.01.2014 04:00 2,7 C 1,6 C 91 % 1011,1 hPa 0,0 l/m 0,00 h 0,00 h 0,0 UV-I 0 W/m 17,6 km/h (3 Bft)
13.01.2014 05:00 2,7 C 1,4 C 92 % 1010,6 hPa 0,0 l/m 0,00 h 0,00 h 0,0 UV-I 0 W/m 17,2 km/h (3 Bft)
13.01.2014 06:00 2,9 C 1,9 C 93 % 1010,3 hPa 0,0 l/m 0,00 h 0,00 h 0,0 UV-I 0 W/m 10,7 km/h (2 Bft)
13.01.2014 07:00 3,6 C 2,4 C 93 % 1010,7 hPa 0,0 l/m 0,00 h 0,00 h 0,0 UV-I 0 W/m 3,6 km/h (1 Bft)
13.01.2014 08:00 5,1 C 4,3 C 95 % 1011,2 hPa 0,0 l/m 0,00 h 0,00 h 0,0 UV-I 8 W/m 5,8 km/h (2 Bft)
13.01.2014 09:00 6,9 C 5,7 C 93 % 1011,6 hPa 0,0 l/m 0,00 h 0,00 h 0,0 UV-I 33 W/m 10,5 km/h (2 Bft)
13.01.2014 10:00 7,3 C 5,8 C 90 % 1011,5 hPa 0,0 l/m 0,10 h 0,00 h 0,0 UV-I 92 W/m 8,4 km/h (2 Bft)
13.01.2014 11:00 8,4 C 7,1 C 87 % 1011,6 hPa 0,0 l/m 0,47 h 0,00 h 0,0 UV-I 159 W/m 11,5 km/h (2 Bft)
13.01.2014 12:00 8,7 C 7,7 C 86 % 1011,0 hPa 0,0 l/m 0,07 h 0,00 h 0,0 UV-I 118 W/m 11,6 km/h (2 Bft)
13.01.2014 13:00 8,9 C 7,8 C 85 % 1010,4 hPa 0,0 l/m 0,10 h 0,00 h 0,0 UV-I 107 W/m 9,5 km/h (2 Bft)
13.01.2014 14:00 8,8 C 7,8 C 85 % 1010,0 hPa 0,0 l/m 0,00 h 0,00 h 0,0 UV-I 50 W/m 5,8 km/h (2 Bft)
13.01.2014 15:00 8,8 C 7,2 C 84 % 1009,8 hPa 0,0 l/m 0,17 h 0,00 h 0,0 UV-I 63 W/m 6,3 km/h (2 Bft)
13.01.2014 16:00 8,1 C 6,0 C 86 % 1009,7 hPa 0,0 l/m 0,40 h 0,00 h 0,0 UV-I 28 W/m 2,9 km/h (1 Bft)
13.01.2014 17:00 7,0 C 3,9 C 88 % 1009,6 hPa 0,0 l/m 0,00 h 0,00 h 0,0 UV-I 0 W/m 0,6 km/h (0 Bft)
13.01.2014 18:00 6,3 C 3,4 C 90 % 1009,3 hPa 0,0 l/m 0,00 h 0,00 h 0,0 UV-I 0 W/m 1,2 km/h (1 Bft)
13.01.2014 19:00 5,5 C 2,2 C 90 % 1009,3 hPa 0,0 l/m 0,00 h 0,00 h 0,0 UV-I 0 W/m 0,5 km/h (0 Bft)
13.01.2014 20:00 4,7 C 1,7 C 92 % 1009,3 hPa 0,0 l/m 0,00 h 0,00 h 0,0 UV-I 0 W/m 2,1 km/h (1 Bft)
13.01.2014 21:00 4,1 C 1,6 C 93 % 1008,7 hPa 0,0 l/m 0,00 h 0,00 h 0,0 UV-I 0 W/m 3,7 km/h (1 Bft)
13.01.2014 22:00 3,8 C 2,0 C 94 % 1008,3 hPa 0,0 l/m 0,00 h 0,00 h 0,0 UV-I 0 W/m 1,3 km/h (1 Bft)
13.01.2014 23:00 3,8 C 1,9 C 94 % 1007,8 hPa 0,0 l/m 0,00 h 0,00 h 0,0 UV-I 0 W/m 3,7 km/h (1 Bft)
14.01.2014 00:00 3,6 C 1,7 C 95 % 1007,5 hPa 0,0 l/m 0,00 h 0,00 h 0,0 UV-I 0 W/m 0,7 km/h (0 Bft)
14.01.2014 01:00 3,5 C 1,8 C 95 % 1006,9 hPa 0,0 l/m 0,00 h 0,00 h 0,0 UV-I 0 W/m 2,1 km/h (1 Bft)
14.01.2014 02:00 4,0 C 2,9 C 96 % 1006,5 hPa 0,0 l/m 0,00 h 0,00 h 0,0 UV-I 0 W/m 5,6 km/h (1 Bft)
14.01.2014 03:00 4,2 C 2,4 C 96 % 1006,0 hPa 0,0 l/m 0,00 h 0,00 h 0,0 UV-I 0 W/m 7,8 km/h (2 Bft)
14.01.2014 04:00 4,0 C 1,9 C 96 % 1005,3 hPa 0,0 l/m 0,00 h 0,00 h 0,0 UV-I 0 W/m 6,1 km/h (2 Bft)
14.01.2014 05:00 3,6 C 1,4 C 96 % 1005,0 hPa 0,0 l/m 0,00 h 0,00 h 0,0 UV-I 0 W/m 0,8 km/h (0 Bft)
14.01.2014 06:00 3,2 C 1,1 C 96 % 1004,7 hPa 0,0 l/m 0,00 h 0,00 h 0,0 UV-I 0 W/m 2,3 km/h (1 Bft)
14.01.2014 07:00 3,3 C 1,6 C 97 % 1004,6 hPa 0,0 l/m 0,00 h 0,00 h 0,0 UV-I 0 W/m 6,3 km/h (2 Bft)
14.01.2014 08:00 3,5 C 2,2 C 97 % 1004,9 hPa 0,0 l/m 0,00 h 0,00 h 0,0 UV-I 8 W/m 8,1 km/h (2 Bft)
14.01.2014 09:00 3,7 C 2,3 C 97 % 1004,9 hPa 0,0 l/m 0,27 h 0,00 h 0,0 UV-I 39 W/m 12,1 km/h (2 Bft)
14.01.2014 10:00 4,8 C 3,7 C 97 % 1004,6 hPa 0,0 l/m 1,00 h 0,00 h 0,0 UV-I 145 W/m 15,1 km/h (3 Bft)
14.01.2014 11:00 6,6 C 5,4 C 92 % 1004,6 hPa 0,0 l/m 0,17 h 0,00 h 0,0 UV-I 113 W/m 15,4 km/h (3 Bft)
14.01.2014 12:00 7,4 C 6,8 C 88 % 1004,2 hPa 0,0 l/m 0,07 h 0,00 h 0,0 UV-I 124 W/m 15,0 km/h (3 Bft)
14.01.2014 13:00 8,5 C 7,8 C 84 % 1003,9 hPa 0,0 l/m 0,60 h 0,00 h 0,0 UV-I 194 W/m 12,6 km/h (3 Bft)
14.01.2014 14:00 9,1 C 8,3 C 78 % 1004,2 hPa 0,0 l/m 0,47 h 0,00 h 0,0 UV-I 127 W/m 11,5 km/h (2 Bft)
14.01.2014 15:00 8,6 C 7,3 C 80 % 1004,7 hPa 0,0 l/m 0,10 h 0,00 h 0,0 UV-I 58 W/m 12,0 km/h (2 Bft)
14.01.2014 16:00 8,0 C 6,4 C 82 % 1005,1 hPa 0,0 l/m 0,00 h 0,00 h 0,0 UV-I 14 W/m 4,9 km/h (1 Bft)
14.01.2014 17:00 7,1 C 4,3 C 83 % 1005,6 hPa 0,2 l/m 0,00 h 0,30 h 0,0 UV-I 0 W/m 3,7 km/h (1 Bft)
14.01.2014 18:00 6,0 C 2,4 C 84 % 1006,0 hPa 0,0 l/m 0,00 h 0,00 h 0,0 UV-I 0 W/m 0,1 km/h (0 Bft)
14.01.2014 19:00 5,0 C 2,0 C 88 % 1006,8 hPa 0,0 l/m 0,00 h 0,00 h 0,0 UV-I 0 W/m 0,5 km/h (0 Bft)
14.01.2014 20:00 4,3 C 2,0 C 90 % 1007,4 hPa 0,0 l/m 0,00 h 0,00 h 0,0 UV-I 0 W/m 1,5 km/h (1 Bft)
14.01.2014 21:00 4,2 C 3,0 C 92 % 1007,8 hPa 0,0 l/m 0,00 h 0,00 h 0,0 UV-I 0 W/m 2,2 km/h (1 Bft)
14.01.2014 22:00 4,8 C 3,9 C 94 % 1008,2 hPa 0,0 l/m 0,00 h 0,00 h 0,0 UV-I 0 W/m 3,5 km/h (1 Bft)
14.01.2014 23:00 4,9 C 3,9 C 93 % 1008,5 hPa 0,0 l/m 0,00 h 0,00 h 0,0 UV-I 0 W/m 2,9 km/h (1 Bft)
15.01.2014 00:00 4,9 C 3,6 C 93 % 1008,9 hPa 0,0 l/m 0,00 h 0,33 h 0,0 UV-I 0 W/m 2,8 km/h (1 Bft)
15.01.2014 01:00 4,6 C 2,9 C 93 % 1009,1 hPa 0,0 l/m 0,00 h 0,00 h 0,0 UV-I 0 W/m 2,1 km/h (1 Bft)
15.01.2014 02:00 4,0 C 2,5 C 93 % 1009,4 hPa 0,0 l/m 0,00 h 0,00 h 0,0 UV-I 0 W/m 1,5 km/h (1 Bft)
15.01.2014 03:00 3,9 C 2,8 C 92 % 1009,7 hPa 0,0 l/m 0,00 h 0,00 h 0,0 UV-I 0 W/m 2,9 km/h (1 Bft)
15.01.2014 04:00 3,9 C 2,4 C 91 % 1009,6 hPa 0,0 l/m 0,00 h 0,00 h 0,0 UV-I 0 W/m 3,0 km/h (1 Bft)
15.01.2014 05:00 3,2 C 1,3 C 91 % 1009,3 hPa 0,0 l/m 0,00 h 0,00 h 0,0 UV-I 0 W/m 2,4 km/h (1 Bft)
15.01.2014 06:00 2,4 C 0,3 C 92 % 1008,9 hPa 0,0 l/m 0,00 h 0,00 h 0,0 UV-I 0 W/m 4,7 km/h (1 Bft)
15.01.2014 07:00 1,8 C 0,3 C 93 % 1008,7 hPa 0,0 l/m 0,00 h 0,00 h 0,0 UV-I 0 W/m 8,6 km/h (2 Bft)
15.01.2014 08:00 1,7 C 0,7 C 93 % 1008,6 hPa 0,0 l/m 0,10 h 0,00 h 0,0 UV-I 12 W/m 11,2 km/h (2 Bft)
15.01.2014 09:00 2,2 C 1,5 C 92 % 1008,7 hPa 0,0 l/m 0,00 h 0,00 h 0,0 UV-I 38 W/m 13,3 km/h (3 Bft)
15.01.2014 10:00 3,3 C 2,7 C 89 % 1008,4 hPa 0,0 l/m 0,00 h 0,13 h 0,0 UV-I 73 W/m 12,9 km/h (3 Bft)
15.01.2014 11:00 3,6 C 2,7 C 91 % 1008,1 hPa 0,0 l/m 0,00 h 0,73 h 0,0 UV-I 84 W/m 14,5 km/h (3 Bft)
15.01.2014 12:00 4,3 C 3,4 C 90 % 1007,2 hPa 0,0 l/m 0,00 h 0,03 h 0,0 UV-I 86 W/m 19,0 km/h (3 Bft)
15.01.2014 13:00 4,7 C 3,9 C 90 % 1006,6 hPa 0,0 l/m 0,00 h 0,33 h 0,0 UV-I 59 W/m 14,4 km/h (3 Bft)
15.01.2014 14:00 4,8 C 3,8 C 92 % 1005,9 hPa 0,2 l/m 0,00 h 0,80 h 0,0 UV-I 55 W/m 16,6 km/h (3 Bft)
15.01.2014 15:00 4,6 C 3,3 C 93 % 1005,7 hPa 0,0 l/m 0,00 h 0,30 h 0,0 UV-I 23 W/m 17,8 km/h (3 Bft)
15.01.2014 16:00 4,4 C 3,2 C 93 % 1005,3 hPa 0,0 l/m 0,00 h 0,10 h 0,0 UV-I 10 W/m 18,5 km/h (3 Bft)
15.01.2014 17:00 4,2 C 2,8 C 95 % 1005,0 hPa 0,2 l/m 0,00 h 0,55 h 0,0 UV-I 0 W/m 16,0 km/h (3 Bft)
15.01.2014 18:00 4,1 C 2,8 C 96 % 1004,9 hPa 0,2 l/m 0,00 h 0,30 h 0,0 UV-I 0 W/m 14,6 km/h (3 Bft)
15.01.2014 19:00 4,1 C 2,8 C 97 % 1004,7 hPa 0,0 l/m 0,00 h 0,32 h 0,0 UV-I 0 W/m 15,3 km/h (3 Bft)
15.01.2014 20:00 4,2 C 3,3 C 97 % 1004,4 hPa 0,2 l/m 0,00 h 0,53 h 0,0 UV-I 0 W/m 12,0 km/h (2 Bft)
15.01.2014 21:00 4,4 C 3,3 C 97 % 1004,2 hPa 0,4 l/m 0,00 h 0,97 h 0,0 UV-I 0 W/m 11,6 km/h (2 Bft)
15.01.2014 22:00 4,5 C 3,3 C 97 % 1003,9 hPa 0,4 l/m 0,00 h 0,80 h 0,0 UV-I 0 W/m 18,5 km/h (3 Bft)
15.01.2014 23:00 4,5 C 3,3 C 97 % 1003,4 hPa 0,0 l/m 0,00 h 0,03 h 0,0 UV-I 0 W/m 16,3 km/h (3 Bft)
16.01.2014 00:00 4,6 C 3,3 C 98 % 1002,8 hPa 0,0 l/m 0,00 h 0,37 h 0,0 UV-I 0 W/m 15,5 km/h (3 Bft)
16.01.2014 01:00 4,7 C 3,6 C 98 % 1002,7 hPa 0,0 l/m 0,00 h 0,07 h 0,0 UV-I 0 W/m 15,4 km/h (3 Bft)
16.01.2014 02:00 4,8 C 3,5 C 98 % 1002,6 hPa 0,0 l/m 0,00 h 0,00 h 0,0 UV-I 0 W/m 14,0 km/h (3 Bft)
16.01.2014 03:00 4,9 C 3,5 C 98 % 1002,3 hPa 0,2 l/m 0,00 h 0,40 h 0,0 UV-I 0 W/m 16,1 km/h (3 Bft)
16.01.2014 04:00 5,2 C 3,9 C 98 % 1001,7 hPa 0,0 l/m 0,00 h 0,17 h 0,0 UV-I 0 W/m 17,4 km/h (3 Bft)
16.01.2014 05:00 5,3 C 3,9 C 98 % 1001,3 hPa 0,0 l/m 0,00 h 0,00 h 0,0 UV-I 0 W/m 17,0 km/h (3 Bft)
16.01.2014 06:00 5,3 C 3,9 C 98 % 1000,8 hPa 0,0 l/m 0,00 h 0,00 h 0,0 UV-I 0 W/m 11,1 km/h (2 Bft)
16.01.2014 07:00 5,6 C 4,3 C 98 % 1000,6 hPa 0,0 l/m 0,00 h 0,00 h 0,0 UV-I 0 W/m 15,4 km/h (3 Bft)
16.01.2014 08:00 6,0 C 4,4 C 98 % 1000,5 hPa 0,0 l/m 0,00 h 0,00 h 0,0 UV-I 8 W/m 15,8 km/h (3 Bft)
16.01.2014 09:00 6,3 C 4,9 C 97 % 1000,3 hPa 0,0 l/m 0,00 h 0,00 h 0,0 UV-I 26 W/m 15,9 km/h (3 Bft)
16.01.2014 10:00 6,9 C 5,7 C 97 % 999,8 hPa 0,0 l/m 0,17 h 0,00 h 0,0 UV-I 82 W/m 20,6 km/h (4 Bft)
16.01.2014 11:00 7,8 C 6,6 C 94 % 999,3 hPa 0,0 l/m 0,20 h 0,00 h 0,0 UV-I 136 W/m 23,7 km/h (4 Bft)
16.01.2014 12:00 7,9 C 6,8 C 92 % 998,6 hPa 0,0 l/m 0,00 h 0,00 h 0,0 UV-I 64 W/m 25,5 km/h (4 Bft)
16.01.2014 13:00 7,7 C 6,2 C 92 % 998,0 hPa 0,2 l/m 0,00 h 0,77 h 0,0 UV-I 42 W/m 26,2 km/h (4 Bft)
16.01.2014 14:00 7,3 C 5,6 C 93 % 997,5 hPa 0,2 l/m 0,00 h 0,37 h 0,0 UV-I 24 W/m 22,3 km/h (4 Bft)
16.01.2014 15:00 7,4 C 5,7 C 94 % 997,2 hPa 0,0 l/m 0,00 h 0,60 h 0,0 UV-I 28 W/m 18,3 km/h (3 Bft)
16.01.2014 16:00 7,7 C 5,6 C 92 % 997,2 hPa 0,2 l/m 0,00 h 0,17 h 0,0 UV-I 5 W/m 16,0 km/h (3 Bft)
16.01.2014 17:00 7,9 C 5,9 C 91 % 997,3 hPa 0,0 l/m 0,00 h 0,03 h 0,0 UV-I 0 W/m 10,5 km/h (2 Bft)
16.01.2014 18:00 8,0 C 5,7 C 89 % 997,6 hPa 0,0 l/m 0,00 h 0,00 h 0,0 UV-I 0 W/m 7,4 km/h (2 Bft)
16.01.2014 19:00 7,4 C 4,7 C 90 % 997,9 hPa 0,0 l/m 0,00 h 0,00 h 0,0 UV-I 0 W/m 6,3 km/h (2 Bft)
16.01.2014 20:00 6,5 C 3,9 C 90 % 998,4 hPa 0,0 l/m 0,00 h 0,00 h 0,0 UV-I 0 W/m 8,1 km/h (2 Bft)
16.01.2014 21:00 6,0 C 3,8 C 90 % 998,4 hPa 0,0 l/m 0,00 h 0,00 h 0,0 UV-I 0 W/m 8,0 km/h (2 Bft)
16.01.2014 22:00 6,0 C 4,2 C 90 % 998,4 hPa 0,0 l/m 0,00 h 0,00 h 0,0 UV-I 0 W/m 12,4 km/h (3 Bft)
16.01.2014 23:00 6,4 C 4,6 C 89 % 998,4 hPa 0,0 l/m 0,00 h 0,17 h 0,0 UV-I 0 W/m 12,6 km/h (3 Bft)
17.01.2014 00:00 6,7 C 4,6 C 89 % 998,2 hPa 0,0 l/m 0,00 h 0,17 h 0,0 UV-I 0 W/m 11,0 km/h (2 Bft)
17.01.2014 01:00 6,9 C 4,6 C 88 % 998,2 hPa 0,0 l/m 0,00 h 0,00 h 0,0 UV-I 0 W/m 11,7 km/h (2 Bft)
17.01.2014 02:00 6,4 C 4,3 C 89 % 998,4 hPa 0,0 l/m 0,00 h 0,00 h 0,0 UV-I 0 W/m 8,0 km/h (2 Bft)
17.01.2014 03:00 6,5 C 4,8 C 89 % 998,6 hPa 0,0 l/m 0,00 h 0,00 h 0,0 UV-I 0 W/m 13,0 km/h (3 Bft)
17.01.2014 04:00 7,1 C 5,4 C 88 % 998,7 hPa 0,0 l/m 0,00 h 0,00 h 0,0 UV-I 0 W/m 16,4 km/h (3 Bft)
17.01.2014 05:00 7,4 C 5,6 C 86 % 998,6 hPa 0,0 l/m 0,00 h 0,00 h 0,0 UV-I 0 W/m 17,2 km/h (3 Bft)
17.01.2014 06:00 7,4 C 5,6 C 86 % 998,6 hPa 0,0 l/m 0,00 h 0,00 h 0,0 UV-I 0 W/m 11,8 km/h (2 Bft)
17.01.2014 07:00 7,3 C 5,6 C 87 % 998,7 hPa 0,0 l/m 0,00 h 0,00 h 0,0 UV-I 0 W/m 7,1 km/h (2 Bft)
17.01.2014 08:00 7,3 C 5,6 C 87 % 999,1 hPa 0,0 l/m 0,00 h 0,00 h 0,0 UV-I 5 W/m 8,8 km/h (2 Bft)
17.01.2014 09:00 7,4 C 6,1 C 87 % 999,2 hPa 0,0 l/m 0,03 h 0,00 h 0,0 UV-I 39 W/m 13,8 km/h (3 Bft)
17.01.2014 10:00 8,2 C 7,1 C 84 % 999,4 hPa 0,0 l/m 0,03 h 0,00 h 0,0 UV-I 57 W/m 12,9 km/h (3 Bft)
17.01.2014 11:00 8,8 C 7,6 C 81 % 999,6 hPa 0,0 l/m 0,13 h 0,00 h 0,0 UV-I 117 W/m 12,1 km/h (2 Bft)
17.01.2014 12:00 9,7 C 8,3 C 77 % 999,3 hPa 0,0 l/m 0,47 h 0,00 h 0,0 UV-I 183 W/m 18,7 km/h (3 Bft)
17.01.2014 13:00 10,1 C 8,8 C 74 % 999,0 hPa 0,0 l/m 0,23 h 0,00 h 0,0 UV-I 129 W/m 19,0 km/h (3 Bft)
17.01.2014 14:00 10,5 C 9,2 C 72 % 998,8 hPa 0,0 l/m 0,63 h 0,00 h 0,0 UV-I 180 W/m 15,1 km/h (3 Bft)
17.01.2014 15:00 10,2 C 8,6 C 73 % 998,9 hPa 0,0 l/m 0,00 h 0,00 h 0,0 UV-I 56 W/m 13,9 km/h (3 Bft)
17.01.2014 16:00 9,5 C 7,5 C 75 % 998,9 hPa 0,0 l/m 0,00 h 0,00 h 0,0 UV-I 22 W/m 10,3 km/h (2 Bft)
17.01.2014 17:00 9,1 C 7,2 C 78 % 999,1 hPa 0,0 l/m 0,00 h 0,00 h 0,0 UV-I 0 W/m 14,4 km/h (3 Bft)
17.01.2014 18:00 8,8 C 7,1 C 78 % 999,3 hPa 0,0 l/m 0,00 h 0,00 h 0,0 UV-I 0 W/m 16,4 km/h (3 Bft)
17.01.2014 19:00 8,7 C 6,7 C 80 % 999,4 hPa 0,0 l/m 0,00 h 0,00 h 0,0 UV-I 0 W/m 19,9 km/h (4 Bft)
17.01.2014 20:00 8,6 C 6,7 C 80 % 999,9 hPa 0,0 l/m 0,00 h 0,00 h 0,0 UV-I 0 W/m 16,1 km/h (3 Bft)
17.01.2014 21:00 8,4 C 5,9 C 83 % 1000,2 hPa 0,0 l/m 0,00 h 0,67 h 0,0 UV-I 0 W/m 15,3 km/h (3 Bft)
17.01.2014 22:00 8,1 C 5,7 C 84 % 1000,5 hPa 0,0 l/m 0,00 h 0,27 h 0,0 UV-I 0 W/m 11,8 km/h (2 Bft)
17.01.2014 23:00 8,0 C 6,1 C 83 % 1000,9 hPa 0,0 l/m 0,00 h 0,00 h 0,0 UV-I 0 W/m 7,8 km/h (2 Bft)
18.01.2014 00:00 7,9 C 6,0 C 82 % 1001,0 hPa 0,0 l/m 0,00 h 0,00 h 0,0 UV-I 0 W/m 6,8 km/h (2 Bft)
18.01.2014 01:00 7,7 C 5,6 C 82 % 1001,1 hPa 0,0 l/m 0,00 h 0,00 h 0,0 UV-I 0 W/m 5,4 km/h (1 Bft)
18.01.2014 02:00 7,4 C 5,6 C 83 % 1001,5 hPa 0,0 l/m 0,00 h 0,00 h 0,0 UV-I 0 W/m 5,4 km/h (1 Bft)
18.01.2014 03:00 7,3 C 5,4 C 84 % 1001,6 hPa 0,0 l/m 0,00 h 0,00 h 0,0 UV-I 0 W/m 11,7 km/h (2 Bft)
18.01.2014 04:00 6,5 C 4,5 C 85 % 1001,5 hPa 0,0 l/m 0,00 h 0,00 h 0,0 UV-I 0 W/m 11,2 km/h (2 Bft)
18.01.2014 05:00 5,8 C 3,9 C 86 % 1001,2 hPa 0,0 l/m 0,00 h 0,00 h 0,0 UV-I 0 W/m 14,2 km/h (3 Bft)
18.01.2014 06:00 5,1 C 3,3 C 88 % 1001,1 hPa 0,0 l/m 0,00 h 0,00 h 0,0 UV-I 0 W/m 13,4 km/h (3 Bft)
18.01.2014 07:00 4,8 C 3,2 C 88 % 1000,9 hPa 0,0 l/m 0,00 h 0,00 h 0,0 UV-I 0 W/m 13,5 km/h (3 Bft)
18.01.2014 08:00 4,4 C 2,8 C 88 % 1000,9 hPa 0,0 l/m 0,00 h 0,00 h 0,0 UV-I 13 W/m 11,5 km/h (2 Bft)
18.01.2014 09:00 4,5 C 3,3 C 89 % 1000,8 hPa 0,2 l/m 0,07 h 0,00 h 0,0 UV-I 49 W/m 17,0 km/h (3 Bft)
18.01.2014 10:00 6,0 C 4,7 C 86 % 1000,8 hPa 0,0 l/m 0,77 h 0,00 h 0,0 UV-I 148 W/m 17,4 km/h (3 Bft)
18.01.2014 11:00 7,6 C 5,9 C 82 % 1000,5 hPa 0,0 l/m 1,00 h 0,00 h 0,0 UV-I 225 W/m 26,3 km/h (4 Bft)
18.01.2014 12:00 8,6 C 7,0 C 79 % 1000,0 hPa 0,0 l/m 0,87 h 0,00 h 0,0 UV-I 215 W/m 21,8 km/h (4 Bft)
18.01.2014 13:00 8,9 C 7,6 C 77 % 999,4 hPa 0,0 l/m 0,63 h 0,00 h 0,0 UV-I 178 W/m 22,2 km/h (4 Bft)
18.01.2014 14:00 9,1 C 7,9 C 76 % 998,9 hPa 0,0 l/m 0,77 h 0,00 h 0,0 UV-I 162 W/m 19,9 km/h (4 Bft)
18.01.2014 15:00 8,8 C 7,5 C 77 % 998,8 hPa 0,0 l/m 0,50 h 0,00 h 0,0 UV-I 96 W/m 18,2 km/h (3 Bft)
18.01.2014 16:00 8,3 C 6,5 C 77 % 998,7 hPa 0,0 l/m 0,00 h 0,00 h 0,0 UV-I 25 W/m 14,1 km/h (3 Bft)
18.01.2014 17:00 7,7 C 5,8 C 77 % 998,5 hPa 0,0 l/m 0,00 h 0,00 h 0,0 UV-I 0 W/m 14,8 km/h (3 Bft)
18.01.2014 18:00 7,5 C 5,5 C 78 % 998,5 hPa 0,0 l/m 0,00 h 0,00 h 0,0 UV-I 0 W/m 15,3 km/h (3 Bft)
18.01.2014 19:00 6,8 C 5,0 C 80 % 998,5 hPa 0,0 l/m 0,00 h 0,00 h 0,0 UV-I 0 W/m 13,3 km/h (3 Bft)
18.01.2014 20:00 6,3 C 4,4 C 80 % 998,5 hPa 0,0 l/m 0,00 h 0,00 h 0,0 UV-I 0 W/m 12,7 km/h (3 Bft)
18.01.2014 21:00 6,3 C 4,4 C 80 % 998,3 hPa 0,0 l/m 0,00 h 0,00 h 0,0 UV-I 0 W/m 14,2 km/h (3 Bft)
18.01.2014 22:00 6,0 C 4,0 C 80 % 998,3 hPa 0,0 l/m 0,00 h 0,00 h 0,0 UV-I 0 W/m 15,6 km/h (3 Bft)
18.01.2014 23:00 5,6 C 3,9 C 83 % 998,1 hPa 0,0 l/m 0,00 h 0,00 h 0,0 UV-I 0 W/m 16,8 km/h (3 Bft)
19.01.2014 00:00 5,4 C 3,8 C 84 % 998,0 hPa 0,0 l/m 0,00 h 0,00 h 0,0 UV-I 0 W/m 17,3 km/h (3 Bft)
19.01.2014 01:00 5,1 C 3,3 C 87 % 997,8 hPa 0,0 l/m 0,00 h 0,00 h 0,0 UV-I 0 W/m 17,8 km/h (3 Bft)
19.01.2014 02:00 4,8 C 3,3 C 89 % 997,8 hPa 0,0 l/m 0,00 h 0,00 h 0,0 UV-I 0 W/m 21,4 km/h (4 Bft)
19.01.2014 03:00 4,9 C 3,5 C 89 % 997,8 hPa 0,0 l/m 0,00 h 0,00 h 0,0 UV-I 0 W/m 15,0 km/h (3 Bft)
19.01.2014 04:00 4,9 C 3,7 C 89 % 997,5 hPa 0,0 l/m 0,00 h 0,00 h 0,0 UV-I 0 W/m 14,1 km/h (3 Bft)
19.01.2014 05:00 5,0 C 3,9 C 89 % 997,3 hPa 0,0 l/m 0,00 h 0,10 h 0,0 UV-I 0 W/m 12,6 km/h (3 Bft)
19.01.2014 06:00 5,1 C 3,7 C 88 % 996,7 hPa 0,0 l/m 0,00 h 0,07 h 0,0 UV-I 0 W/m 17,5 km/h (3 Bft)
19.01.2014 07:00 4,8 C 3,3 C 88 % 996,9 hPa 0,0 l/m 0,00 h 0,00 h 0,0 UV-I 0 W/m 18,9 km/h (3 Bft)
19.01.2014 08:00 4,5 C 2,9 C 88 % 997,3 hPa 0,0 l/m 0,00 h 0,00 h 0,0 UV-I 11 W/m 18,4 km/h (3 Bft)
19.01.2014 09:00 4,4 C 3,4 C 89 % 997,9 hPa 0,0 l/m 0,00 h 0,00 h 0,0 UV-I 27 W/m 15,4 km/h (3 Bft)
19.01.2014 10:00 4,9 C 4,3 C 89 % 998,1 hPa 0,0 l/m 0,00 h 0,00 h 0,0 UV-I 73 W/m 15,0 km/h (3 Bft)
19.01.2014 11:00 5,8 C 5,2 C 87 % 998,1 hPa 0,0 l/m 0,00 h 0,03 h 0,0 UV-I 81 W/m 17,8 km/h (3 Bft)
19.01.2014 12:00 6,4 C 5,9 C 86 % 998,1 hPa 0,0 l/m 0,13 h 0,00 h 0,0 UV-I 139 W/m 17,2 km/h (3 Bft)
19.01.2014 13:00 7,3 C 6,6 C 83 % 998,2 hPa 0,0 l/m 0,43 h 0,00 h 0,0 UV-I 156 W/m 15,4 km/h (3 Bft)
19.01.2014 14:00 6,9 C 6,0 C 85 % 998,5 hPa 0,0 l/m 0,00 h 0,00 h 0,0 UV-I 48 W/m 8,7 km/h (2 Bft)
19.01.2014 15:00 7,1 C 6,0 C 86 % 998,8 hPa 0,0 l/m 0,00 h 0,00 h 0,0 UV-I 47 W/m 0,4 km/h (0 Bft)
19.01.2014 16:00 6,9 C 5,3 C 87 % 999,3 hPa 0,0 l/m 0,00 h 0,00 h 0,0 UV-I 25 W/m 0,0 km/h (0 Bft)
19.01.2014 17:00 6,0 C 3,2 C 88 % 999,7 hPa 0,0 l/m 0,00 h 0,00 h 0,0 UV-I 5 W/m 0,0 km/h (0 Bft)
19.01.2014 18:00 5,2 C 3,1 C 89 % 1000,0 hPa 0,0 l/m 0,00 h 0,00 h 0,0 UV-I 0 W/m 0,0 km/h (0 Bft)
19.01.2014 19:00 4,8 C 3,3 C 91 % 1000,5 hPa 0,0 l/m 0,00 h 0,00 h 0,0 UV-I 0 W/m 0,0 km/h (0 Bft)
19.01.2014 20:00 4,6 C 3,0 C 91 % 1000,8 hPa 0,0 l/m 0,00 h 0,00 h 0,0 UV-I 0 W/m 0,0 km/h (0 Bft)
19.01.2014 21:00 4,3 C 2,3 C 92 % 1001,2 hPa 0,0 l/m 0,00 h 0,00 h 0,0 UV-I 0 W/m 0,0 km/h (0 Bft)
19.01.2014 22:00 3,8 C 1,7 C 92 % 1001,4 hPa 0,0 l/m 0,00 h 0,00 h 0,0 UV-I 0 W/m 0,0 km/h (0 Bft)
19.01.2014 23:00 3,7 C 2,8 C 93 % 1001,7 hPa 0,0 l/m 0,00 h 0,00 h 0,0 UV-I 0 W/m 0,0 km/h (0 Bft)
Min-Datum _ 15.01.14 15.01.14 17.01.14 19.01.14 - - - - - 13.01.14
_ Min-Zeit 07:58 06:28 14:46 06:22 - - - - - 06:40
Minimum _ 1,6 C 0,0 C 71 % 996,4 hPa - - - - - 0,0 km/h (0 Bft)
Max-Datum _ 17.01.14 17.01.14 15.01.14 13.01.14 15.01.14 13.01.14 14.01.14 13.01.14 14.01.14 16.01.14
_ Max-Zeit 14:50 12:58 20:14 00:26 21:28 10:44 17:04 00:00 13:22 11:22
Maximum _ 10,8 C 9,4 C 100 % 1013,6 hPa 0,4 l/m 0,03 h 0,03 h 0,0 UV-I 381 W/m 38,6 km/h
S-SO (5 Bft)
Durchschnitt _ 5,9 C 4,3 C 89 % 1002,9 hPa #2,8 l/m #11:08 h #10:58 h 0,0 UV-I 76 W/m 11,4 km/h (2 Bft)
© 2014 W. Hausmann